DELTA 1 DEB, 7041

Orbit data source: Space-Track

DELTA 1 DEB, 7041 is space debris in SSO originally from a launch on Tue, 06 Nov 1973 UTC launched from the Air Force Western Test Range (AFWTR). Debris objects in space refer to the collection of defunct objects orbiting the Earth. Examples of debris include non-operational satellites, rocket bodies, and fragments generated from explosions, collisions, or faulty payload assembly.

Loading next visibility...
Identifier
7041, 1973-086AH
Orbit
SSO
Country
Flag of USUS
Related business
Manufacturer
Unknown
Mission
Spacecraft
Bus & Motor
Unknown
Mass
Unknown
Launch date (UTC)
1973-11-06 (52 years ago)
Launch vehicle
Unknown
Launch site
Air Force Western Test Range (AFWTR)
Object type
Payload
Rocket body
Debris
Shape & HBR
Unknown shape, 0.2 m
Radar Cross Section
Medium (>0.1 m² and <1 m²)

Expand to show TLE details & history
Last TLE update: 17 hours ago

TLE from 17 hours ago
0 DELTA 1 DEB
1  7041U 73086AH  26122.30769743  .00000463  00000-0  36949-2 0  9994
2  7041 101.5534 148.1032 0173393 305.4690 120.5426 12.37843041348924
Epoch: 2026-05-02T07:23Z
TLE epoch observation values (Epoch: 2026-05-02T07:23:05.057Z)
Latitude
65.10709°
Longitude
151.10233°
Altitude
1,598.135 km
Speed
7.044 km/s
True Right ascension
08h 08m 24s
True Declination
64° 59' 22"
Sunlit
Object was in daylight at epoch
Visualization orbit readout
Latitude
Unknown
Longitude
Unknown
Altitude
Unknown
Speed
Unknown
Apparent Right ascension
Unknown
Apparent Declination
Unknown
Sunlit
N/A
Visualization observer readout
Local Sidereal Time
08:19:05
Azimuth
Unknown
Elevation
Unknown
Doppler factor
Unknown
Orbital elements
Apogee altitude
1,650.143 km
Perigee altitude
1,376.478 km
Semi-major axis
7,891.447 km
Eccentricity
0.01734
Inclination
101.5534°
RAAN
148.1032°
Arg. of periapsis
305.469°
True anomaly
122.23496°
Mean anomaly
120.5426°
Eccentric anomaly
121.39066°
Mean motion
3.09605 °/min
Orbital period
116.28 mins
BSTAR
0.0036949
Loading maneuver chart data...
Computing Atmospheric mass density...
Loading historical data...
Loading historical data...
Loading historical data...
Loading historical data...
Loading historical data...
Loading historical data...
Loading historical data...

Documentation

Showing up to 5 results
|